DMSP 5D-2 F6 DEB, 40919

Orbit data source: Space-Track

DMSP 5D-2 F6 DEB, 40919 is space debris in SSO originally from a launch on Tue, 21 Dec 1982 UTC launched from the Air Force Western Test Range (AFWTR). Debris objects in space refer to the collection of defunct objects orbiting the Earth. Examples of debris include non-operational satellites, rocket bodies, and fragments generated from explosions, collisions, or faulty payload assembly.

Loading next visibility...
Identifier
40919, 1982-118M
Orbit
SSO
Country
Flag of USUS
Related business
Manufacturer
Unknown
Mission
Spacecraft
Bus & Motor
Unknown
Mass
Unknown
Launch date (UTC)
1982-12-21 (43 years ago)
Launch vehicle
Unknown
Launch site
Air Force Western Test Range (AFWTR)
Object type
Payload
Rocket body
Debris
Shape & HBR
Unknown shape, 0.1 m
Radar Cross Section
Small (<0.1 m²)

Expand to show TLE details & history
Last TLE update: 14 hours ago

TLE from 14 hours ago
0 DMSP 5D-2 F6 DEB
1 40919U 82118M   25300.16904542  .00205280  00000-0  86255-2 0  9999
2 40919  98.3817 181.2724 0004101  81.8950 278.2749 15.22492531498209
Epoch: 2025-10-27T04:03Z
TLE epoch observation values (Epoch: 2025-10-27T04:03:25.524Z)
Latitude
0.00002°
Longitude
84.6413°
Altitude
500.984 km
Speed
7.614 km/s
True Right ascension
12h 05m 05s
True Declination
0° 00' 00"
Sunlit
Object was in daylight at epoch
Visualization orbit readout
Latitude
Unknown
Longitude
Unknown
Altitude
Unknown
Speed
Unknown
Apparent Right ascension
Unknown
Apparent Declination
Unknown
Sunlit
N/A
Visualization observer readout
Local Sidereal Time
13:23:36
Azimuth
Unknown
Elevation
Unknown
Doppler factor
Unknown
Orbital elements
Apogee altitude
498.151 km
Perigee altitude
492.513 km
Semi-major axis
6,873.469 km
Eccentricity
0.00041
Inclination
98.3817°
RAAN
181.2724°
Arg. of periapsis
81.895°
True anomaly
278.22839°
Mean anomaly
278.2749°
Eccentric anomaly
278.25165°
Mean motion
3.80872 °/min
Orbital period
94.52 mins
BSTAR
0.0086255
Loading maneuver chart data...
Computing Atmospheric mass density...
Loading historical data...
Loading historical data...
Loading historical data...
Loading historical data...
Loading historical data...
Loading historical data...
Loading historical data...

Documentation

Showing up to 5 results
|